Tracking 25620 objects as of 18-May-2022
HD Live streaming from Space Station
objects crossing your sky now

COSMOS 1375 DEB

Track COSMOS 1375 DEB now!
10-day predictions


NORAD ID: 19453
Int'l Code: 1982-055BL
Perigee: 760.9 km
Apogee: 839.6 km
Inclination: 65.8 °
Period: 100.7 minutes
Semi major axis: 7171 km
RCS: 0.0034 m2 (small)
Launch date: June 6, 1982
Source: Commonwealth of Independent States (former USSR) (CIS)
Launch site: PLESETSK MISSILE AND SPACE COMPLEX (PKMTR)

Note: This is SATELLITE DEBRIS
aabbcc
Your satellite tracking list
Your tracking list is empty




NASA's NSSDC Master Catalog

Two Line Element Set (TLE):
1 19453U 82055BL  22138.23258531  .00002664  00000-0  10575-2 0  9995
2 19453  65.8066  77.4993 0054865 178.5603 303.0941 14.29597284758441
Source of the keplerian elements: AFSPC